This is the latest recevied weather packets stored in our database for station/object N3FAA. If no packets are shown the sender has not sent any weather packets the latest 1 day(s).
| Time | Temp. | Humidity | Pressure | Rain* | Wind** | Luminosity | Snow |
|---|---|---|---|---|---|---|---|
| 1778026268 | 17.22° C | 47% | 1009.8 hPa | 0 mm | 4.02 m/s, 273° | 396 W/m² | - |
| 1778025966 | 17.22° C | 49% | 1009.4 hPa | 0 mm | 4.92 m/s, 285° | 411 W/m² | - |
| 1778025663 | 17.78° C | 44% | 1009.8 hPa | 0 mm | 6.71 m/s, 280° | 425 W/m² | - |
| 1778025361 | 17.78° C | 45% | 1009.3 hPa | 0 mm | 5.36 m/s, 277° | 424 W/m² | - |
| 1778025057 | 17.78° C | 44% | 1009.2 hPa | 0 mm | 4.92 m/s, 280° | 445 W/m² | - |
| 1778024754 | 18.33° C | 43% | 1009.4 hPa | 0 mm | 4.02 m/s, 250° | 520 W/m² | - |
| 1778024451 | 17.78° C | 43% | 1009.3 hPa | 0 mm | 4.47 m/s, 237° | 590 W/m² | - |
| 1778024149 | 17.78° C | 42% | 1009.4 hPa | 0 mm | 4.47 m/s, 278° | 441 W/m² | - |
| 1778023846 | 17.78° C | 45% | 1009.3 hPa | 0 mm | 4.92 m/s, 289° | 261 W/m² | - |
| 1778023544 | 18.89° C | 41% | 1009.1 hPa | 0 mm | 6.26 m/s, 278° | 685 W/m² | - |
| 1778023241 | 18.33° C | 42% | 1009.5 hPa | 0 mm | 3.58 m/s, 265° | 655 W/m² | - |
| 1778022938 | 18.89° C | 41% | 1009.4 hPa | 0 mm | 4.02 m/s, 273° | 651 W/m² | - |
| 1778022636 | 18.89° C | 41% | 1009.4 hPa | 0 mm | 2.68 m/s, 237° | 638 W/m² | - |
| 1778022333 | 18.33° C | 43% | 1009.4 hPa | 0 mm | 3.13 m/s, 237° | 651 W/m² | - |
| 1778022030 | 18.33° C | 43% | 1009.2 hPa | 0 mm | 7.15 m/s, 245° | 677 W/m² | - |
| 1778021726 | 17.78° C | 44% | 1009.5 hPa | 0 mm | 4.47 m/s, 237° | 742 W/m² | - |
| 1778021422 | 18.33° C | 44% | 1009.3 hPa | 0 mm | 4.47 m/s, 273° | 313 W/m² | - |
| 1778021119 | 17.78° C | 46% | 1009.8 hPa | 0 mm | 4.02 m/s, 264° | 295 W/m² | - |
| 1778020817 | 18.89° C | 42% | 1009.6 hPa | 0 mm | 5.36 m/s, 277° | 275 W/m² | - |
| 1778020514 | 18.89° C | 41% | 1009.6 hPa | 0 mm | 4.02 m/s, 291° | 761 W/m² | - |
| 1778020216 | 18.33° C | 42% | 1009.8 hPa | 0 mm | 3.58 m/s, 250° | 315 W/m² | - |
| 1778019901 | 18.89° C | 42% | 1009.6 hPa | 0 mm | 3.13 m/s, 278° | 394 W/m² | - |
| 1778019596 | 18.33° C | 41% | 1009.8 hPa | 0 mm | 3.58 m/s, 273° | 861 W/m² | - |
| 1778019294 | 18.33° C | 40% | 1009.6 hPa | 0 mm | 4.92 m/s, 260° | 453 W/m² | - |
| 1778018991 | 18.89° C | 40% | 1009.8 hPa | 0 mm | 4.02 m/s, 250° | 364 W/m² | - |
* Rain latest hour (hover to see other rain measurements)
** Current wind speed in m/s (hover to see current wind gust speed)